Temperature
16 18 19 20 20 20 20 20 20 20 19 19 21 21 22 21 21 21 21 21 21 20 20 20 20 20 21 22 21 21 21 21 21 21 20 20 20 20 20 19 18 17 17 16
17 18 19 18 18 18 19 20 20 20 19 19 21 21 21 21 20 20 20 20 20 19 19 19 19 20 19 20 21 22 21 21 21 21 20 19 19 19 20 20 19 19 18 17
19 17 17 17 17 19 19 20 19 19 20 19 20 21 21 21 21 20 20 19 19 18 18 18 19 20 21 20 19 20 21 21 21 21 19 19 19 20 20 20 21 20 19 18
17 16 17 18 18 18 19 18 18 18 20 20 19 22 21 21 21 21 20 20 18 18 17 17 18 19 19 19 19 19 20 20 20 19 19 20 20 20 21 20 20 20 19 19
16 16 17 18 18 18 18 17 17 18 19 19 19 21 22 21 21 20 20 19 18 17 17 17 17 18 19 20 20 20 21 21 21 21 21 20 20 20 20 20 20 20 19 19
16 16 17 17 16 16 16 17 17 18 19 19 18 19 21 21 21 20 20 19 18 17 17 16 17 19 19 20 20 20 21 21 21 21 21 21 21 21 21 21 20 19 19 19
16 16 16 16 17 17 18 19 20 20 19 18 16 18 21 21 20 20 19 18 18 17 16 16 18 18 19 19 19 19 19 19 19 19 19 18 18 18 19 19 18 18 19 19
17 15 16 15 17 18 18 19 19 19 19 20 16 19 21 21 20 18 17 17 17 16 16 16 17 17 17 17 18 18 18 18 19 19 18 18 18 17 16 15 15 16 16 16
17 17 15 15 15 17 15 17 17 18 16 18 18 19 21 20 19 19 18 18 16 16 15 15 16 16 15 16 17 17 17 17 18 18 18 18 18 18 18 17 17 18 18 18
16 15 15 15 15 15 14 16 13 17 17 17 18 18 20 20 20 20 19 18 16 15 14 14 14 15 14 15 15 15 16 16 16 17 17 17 17 17 18 18 18 18 18 18
15 15 15 15 16 17 16 17 16 17 17 17 17 19 21 21 20 19 18 16 15 14 13 12 12 12 12 13 13 13 13 14 14 14 14 15 15 15 16 17 17 17 18 18
14 15 16 16 14 14 16 17 17 18 16 16 16 18 20 20 18 17 17 16 14 14 13 11 11 11 11 11 11 11 12 12 13 13 13 13 13 13 14 14 15 15 16 16
14 14 16 16 15 14 14 15 16 16 16 16 16 18 18 18 18 17 16 14 13 11 11 11 11 11 11 10 10 11 11 11 12 12 12 12 12 12 12 13 13 13 14 14
14 14 16 17 17 16 15 15 15 15 16 16 17 18 20 20 19 17 15 13 12 11 11 11 11 11 11 11 11 10 10 10 11 11 11 11 11 11 12 12 12 12 12 12
13 15 15 15 16 15 15 15 16 15 16 15 17 18 19 19 19 15 12 11 11 11 11 11 11 11 11 10 10 10 11 11 10 10 10 9 10 10 10 11 11 11 11 11
12 13 13 14 15 14 13 14 15 15 15 15 16 16 18 16 13 12 12 11 11 11 10 10 10 9 10 9 8 8 8 9 9 9 9 9 9 9 9 9 9 10 10 10
12 13 13 13 12 12 12 15 14 15 16 16 15 17 15 13 12 12 12 11 10 10 9 9 8 8 7 6 7 7 7 8 7 7 7 8 8 8 8 8 8 7 7 7
13 12 12 12 12 11 14 14 14 14 15 16 16 16 13 12 11 11 11 11 9 8 8 8 7 6 5 6 6 7 8 7 7 6 6 6 6 6 5 5 5 5 6 6
11 12 11 10 12 13 15 15 13 13 14 15 14 13 11 10 9 10 10 8 7 6 6 6 5 5 5 5 6 6 6 6 6 6 6 6 5 4 5 5 5 4 4 5
9 10 11 10 9 10 14 15 13 13 13 14 12 11 10 9 11 12 8 6 5 4 4 5 5 5 5 5 5 4 3 3 2 2 3 3 2 2 3 3 3 3 3 4
7 8 8 9 9 11 14 14 12 12 12 10 10 10 9 10 10 8 7 6 5 4 3 4 4 3 3 2 2 1 1 1 1 1 2 2 2 2 2 2 2 2 2 2
10 9 8 9 9 9 13 11 11 12 10 9 9 8 8 8 7 6 5 4 4 4 3 3 1 0 -0 -1 -1 -1 -1 -1 -1 -0 0 0 0 1 1 1 1 1 2 2
10 13 13 11 12 13 12 12 11 10 10 9 8 7 7 6 5 4 3 2 1 0 0 -0 -0 -1 -1 -2 -2 -2 -1 -1 -2 -1 -1 -1 -1 -1 -0 -0 0 1 1 1
12 12 11 12 12 14 12 10 9 9 9 8 7 6 4 3 2 1 1 -0 -1 -1 -0 -0 -1 -1 -2 -2 -1 -1 -2 -2 -2 -3 -2 -2 -2 -1 -1 -1 -1 -0 0 0
11 10 11 12 13 13 13 11 9 7 6 5 4 3 2 1 -0 -1 -2 -2 -2 -1 -1 -1 -2 -3 -3 -2 -2 -3 -3 -3 -3 -3 -3 -3 -3 -2 -2 -2 -2 -2 -1 -1
8 9 11 11 13 12 11 10 7 6 4 3 2 1 0 -0 -1 -2 -2 -3 -3 -3 -3 -3 -3 -4 -4 -3 -3 -4 -4 -4 -5 -4 -4 -4 -4 -3 -3 -3 -3 -2 -2 -0
Wind_Speed
5 7 11 9 3 2 4 3 3 1 2 4 8 13 13 10 3 4 6 8 10 13 14 14 16 18 19 20 20 21 20 20 16 14 14 13 16 15 15 15 19 20 21 21
8 9 6 5 5 3 2 2 1 1 2 3 8 9 5 9 9 8 9 10 11 13 12 10 10 12 16 19 20 19 19 19 18 16 15 12 10 11 15 15 18 21 22 21
8 4 7 7 6 4 1 1 1 1 3 2 5 4 7 10 11 12 12 11 13 15 16 16 15 12 10 12 15 15 16 16 17 17 14 12 11 11 12 15 16 18 19 20
6 4 8 7 5 3 2 1 2 2 4 2 3 4 7 9 14 16 18 18 18 19 19 19 17 15 11 8 7 9 10 11 12 14 15 18 15 15 16 13 13 14 17 19
5 5 7 5 3 3 2 2 1 1 3 2 2 1 4 3 10 13 16 18 16 17 20 21 19 17 15 10 6 5 6 9 11 13 16 16 17 16 14 13 13 14 15 17
5 2 1 2 2 1 4 3 2 1 2 2 2 2 2 2 4 7 12 18 16 16 18 19 19 17 17 14 11 7 5 5 6 10 14 18 20 18 16 15 14 13 12 14
5 2 1 1 3 3 4 4 2 2 2 1 1 4 3 4 2 0 6 12 15 16 17 18 19 19 17 17 16 13 11 9 6 5 9 13 16 16 17 16 14 13 12 13
4 3 2 1 1 1 1 2 2 1 1 0 2 4 3 7 4 3 3 6 12 14 15 15 15 15 16 16 16 16 15 13 11 8 7 8 10 11 12 13 13 13 12 11
3 3 2 1 1 0 2 2 1 0 1 3 3 6 7 11 8 5 1 8 13 13 13 13 14 14 14 15 15 15 15 15 14 12 9 8 8 9 11 13 13 12 13 12
2 3 2 2 2 2 1 4 2 2 2 3 3 6 6 9 11 7 2 8 9 9 10 11 11 11 12 12 13 15 16 15 15 14 12 9 8 8 10 11 13 13 14 15
3 3 4 2 4 5 4 3 0 1 2 3 3 6 2 4 3 2 6 9 10 11 9 8 7 8 9 10 10 12 13 13 13 13 13 13 12 11 9 9 11 12 14 15
2 2 3 2 3 2 0 2 5 3 2 3 3 8 3 3 2 4 7 9 8 6 5 6 6 6 7 8 10 12 13 13 12 11 10 11 11 12 11 11 12 12 13 14
2 2 3 4 3 3 3 4 5 3 4 9 7 8 4 6 3 7 10 8 5 4 4 5 6 7 9 11 12 13 13 13 13 12 11 11 11 12 13 13 13 13 13 14
1 2 5 3 0 1 4 6 10 11 10 13 20 23 18 15 16 14 10 5 2 2 2 5 8 9 10 12 13 13 13 12 13 13 14 13 13 13 13 14 15 15 15 15
2 4 7 12 13 12 14 16 18 19 23 23 27 30 26 23 18 10 3 1 0 2 6 10 13 15 15 15 15 15 15 15 16 15 14 14 14 15 15 16 17 18 18 17
1 3 5 12 13 12 16 20 23 24 26 29 31 30 24 12 3 4 4 4 1 6 10 12 13 15 15 13 14 14 14 14 14 14 15 15 15 16 16 17 18 20 20 20
2 4 5 8 6 11 12 14 18 18 20 20 20 18 7 4 4 6 9 7 5 12 13 13 13 12 11 11 12 13 13 13 14 14 14 14 16 16 17 18 18 19 19 21
9 6 5 6 8 8 2 4 8 12 17 19 22 19 10 7 5 8 10 9 8 12 13 13 11 10 9 11 13 15 16 15 15 14 15 15 16 17 18 18 18 19 19 19
13 10 5 4 7 12 12 9 7 8 15 15 14 8 8 5 5 7 4 3 7 10 10 9 8 9 11 12 14 16 16 16 17 17 17 18 18 18 19 20 20 20 19 19
5 11 8 6 6 7 4 3 3 6 12 7 8 9 7 5 6 1 1 4 5 7 7 9 11 12 12 14 16 16 17 17 16 17 18 18 19 19 20 20 20 19 19 19
4 6 12 14 11 11 13 7 1 7 4 7 5 2 2 4 6 4 5 6 6 7 9 11 12 12 13 14 15 16 16 16 17 17 18 18 18 19 19 19 18 19 18 18
8 8 9 9 10 11 10 6 6 5 4 4 3 3 4 5 5 5 6 7 9 10 11 12 11 12 12 13 14 15 16 18 18 18 18 18 18 17 17 19 18 18 18 18
10 11 6 11 12 11 8 7 5 2 4 5 5 6 5 7 8 7 6 6 7 9 10 11 12 13 13 14 16 18 18 19 19 19 20 19 19 18 18 18 18 16 15 15
8 9 10 17 19 23 15 7 5 7 7 4 2 2 1 4 5 6 6 5 6 7 9 10 12 14 15 16 17 18 19 20 20 21 20 20 19 19 18 16 15 15 14 15
8 6 21 27 25 25 20 14 9 6 4 4 4 3 2 3 5 4 4 5 6 8 9 11 13 15 17 18 19 19 19 20 21 21 20 19 18 19 18 16 15 16 16 16
11 22 22 21 21 19 20 11 7 8 8 7 6 4 2 2 2 2 4 5 7 9 10 12 14 16 18 19 20 20 20 20 20 20 19 17 17 17 17 17 17 16 17 20
Wind_Direction
159 192 195 185 182 110 138 162 194 186 47 303 285 298 324 338 327 316 317 306 298 293 290 278 266 257 249 242 237 233 228 224 217 212 211 217 227 231 230 231 232 230 227 224
166 199 171 127 126 135 160 169 146 186 200 279 300 318 31 35 40 25 9 3 351 339 333 326 316 289 264 249 238 234 231 227 218 216 214 217 231 234 232 231 230 228 228 226
164 152 153 155 157 173 183 270 118 268 285 255 303 99 71 46 59 61 51 33 23 13 5 357 347 334 296 268 258 246 240 236 227 221 219 223 233 235 235 231 230 229 230 229
105 135 160 165 173 205 160 197 227 285 317 14 3 124 84 55 68 58 49 40 35 33 30 21 12 9 359 327 288 264 256 251 243 231 226 225 226 234 238 239 238 231 228 227
121 146 161 168 157 211 134 161 232 302 302 292 24 283 112 91 73 58 45 38 39 39 33 24 21 21 21 15 353 307 273 253 241 230 228 232 239 247 252 247 241 235 228 226
103 106 95 119 109 184 161 176 152 168 231 220 9 306 159 141 94 66 43 35 34 35 28 25 24 26 26 23 21 15 352 314 279 248 236 232 237 243 245 243 240 238 230 224
116 95 106 170 168 169 209 238 228 194 190 116 341 281 235 182 176 336 20 20 22 31 26 22 22 21 21 21 19 17 13 7 350 299 267 257 255 255 254 252 248 242 234 227
144 149 155 165 278 142 132 300 292 295 304 142 220 266 248 194 186 261 319 3 26 32 26 26 27 24 24 22 22 21 20 16 5 345 314 285 271 269 272 274 273 268 262 254
158 130 122 101 69 70 161 164 27 83 56 276 263 285 271 193 214 239 226 23 34 29 23 27 29 32 30 28 29 29 30 27 20 8 349 323 299 281 275 273 269 266 265 264
174 147 153 126 147 71 21 113 167 201 221 240 259 265 235 187 195 199 323 18 30 34 34 31 29 30 31 34 35 36 32 29 21 14 9 353 330 303 288 282 277 273 270 267
152 173 149 173 202 171 150 174 140 5 335 289 273 266 254 229 188 0 7 11 12 29 43 44 40 37 43 42 35 28 22 19 16 14 9 4 355 343 326 304 294 286 280 275
156 173 179 157 98 59 26 193 191 217 187 239 278 276 272 233 106 25 359 355 13 48 60 54 47 39 34 25 14 6 3 4 5 5 3 4 1 355 351 341 328 315 301 291
169 184 192 161 153 156 198 190 200 203 226 233 228 248 164 157 185 330 333 353 37 82 66 37 24 10 2 356 353 351 353 350 348 346 345 345 347 345 344 341 335 326 316 305
173 231 250 265 154 168 229 214 213 218 241 256 246 258 265 273 284 304 324 359 74 80 23 355 353 348 344 343 346 345 341 342 340 335 329 326 327 323 321 321 322 322 320 314
358 274 272 275 282 278 273 267 255 250 258 263 267 271 278 288 295 297 303 139 157 358 346 344 341 338 337 343 347 343 341 342 340 332 326 326 325 322 319 317 315 313 311 309
52 291 303 288 290 289 278 268 264 262 260 262 269 275 286 295 276 240 224 206 54 352 339 333 328 325 327 335 337 336 338 338 336 331 328 330 327 324 321 319 316 311 308 306
206 256 281 285 320 306 272 247 246 246 245 254 266 280 306 249 219 242 236 225 334 344 335 325 318 316 321 328 336 336 335 335 334 330 329 329 325 322 320 319 317 314 311 306
230 237 254 280 295 257 301 267 253 263 266 267 266 270 256 238 263 274 254 250 311 327 321 318 320 321 326 336 337 335 333 332 330 328 328 328 325 322 321 320 319 315 313 309
231 230 245 258 267 284 296 269 231 252 273 258 255 232 205 219 269 250 232 273 309 318 327 341 351 342 334 337 338 333 330 332 330 330 328 327 325 323 323 323 321 318 314 309
198 215 227 238 257 266 278 283 349 303 282 231 198 185 193 205 258 279 90 332 341 353 360 353 347 339 333 336 336 329 327 326 325 325 323 323 323 322 322 321 319 318 316 313
153 199 218 228 240 257 258 255 315 257 264 141 161 186 224 274 307 327 332 336 344 339 339 340 335 329 329 331 331 326 325 324 326 323 322 321 321 321 320 319 318 317 316 313
203 204 210 220 235 257 246 212 219 238 146 156 219 245 255 274 286 306 320 327 333 331 332 331 326 324 325 329 329 326 326 328 325 321 319 318 317 315 313 315 314 315 316 315
228 230 236 219 235 254 221 217 212 172 214 212 251 264 251 265 281 301 313 321 321 320 322 327 329 328 332 336 335 329 328 327 324 321 320 319 318 315 315 313 312 311 313 314
237 246 254 259 255 256 252 236 223 191 219 214 243 282 287 286 283 287 295 308 317 328 332 332 330 329 330 333 329 326 326 325 322 320 319 317 316 314 312 310 309 309 313 314
260 263 261 266 271 279 275 254 225 195 138 113 121 140 155 245 268 289 309 321 326 330 328 328 325 323 322 323 321 322 323 322 320 317 314 314 313 310 308 306 306 305 306 306
224 245 254 265 278 287 286 276 177 174 169 171 172 161 161 242 274 298 306 315 323 325 322 319 318 318 318 317 315 317 317 316 314 311 309 309 309 306 305 307 306 298 294 294
Height
1513 1515 1512 1510 1511 1512 1511 1513 1514 1513 1515 1514 1507 1505 1502 1497 1495 1495 1493 1492 1490 1488 1486 1485 1485 1484 1484 1484 1484 1485 1486 1487 1489 1490 1491 1493 1494 1495 1494 1494 1493 1493 1493 1493
1513 1511 1512 1514 1516 1515 1514 1514 1513 1514 1515 1514 1507 1506 1503 1499 1496 1495 1494 1491 1488 1485 1483 1481 1479 1476 1475 1475 1476 1478 1479 1481 1482 1485 1486 1488 1489 1489 1488 1487 1486 1485 1485 1485
1505 1513 1515 1515 1517 1516 1516 1513 1515 1516 1511 1512 1510 1506 1503 1500 1498 1497 1495 1493 1489 1485 1481 1477 1474 1471 1470 1469 1470 1473 1475 1477 1478 1479 1480 1480 1481 1480 1480 1479 1478 1478 1478 1478
1509 1514 1514 1514 1515 1515 1516 1518 1517 1515 1511 1510 1514 1506 1505 1501 1499 1498 1496 1494 1492 1489 1485 1481 1475 1470 1467 1466 1466 1468 1471 1473 1475 1475 1474 1474 1474 1473 1474 1474 1473 1472 1472 1472
1512 1512 1512 1513 1516 1516 1517 1519 1518 1517 1513 1514 1514 1504 1500 1500 1499 1499 1498 1497 1495 1492 1489 1484 1478 1473 1469 1466 1465 1465 1468 1470 1471 1471 1470 1470 1469 1469 1469 1467 1465 1464 1464 1464
1509 1513 1513 1514 1518 1518 1519 1518 1517 1516 1515 1516 1519 1516 1501 1497 1498 1500 1499 1498 1496 1494 1490 1486 1481 1476 1473 1470 1467 1466 1466 1467 1466 1465 1464 1463 1462 1461 1460 1459 1458 1457 1456 1457
1511 1514 1515 1517 1516 1518 1516 1513 1510 1511 1514 1518 1523 1517 1499 1496 1498 1499 1499 1498 1496 1494 1490 1485 1480 1477 1475 1472 1469 1467 1466 1464 1462 1460 1458 1457 1456 1455 1454 1453 1451 1450 1449 1448
1509 1523 1515 1517 1515 1513 1514 1513 1515 1520 1519 1511 1524 1511 1495 1492 1497 1498 1500 1499 1496 1493 1490 1486 1482 1479 1476 1473 1470 1468 1465 1463 1461 1459 1457 1455 1453 1451 1449 1448 1447 1446 1445 1443
1506 1513 1517 1518 1517 1517 1522 1516 1519 1519 1529 1522 1513 1503 1489 1490 1494 1496 1497 1496 1494 1493 1490 1487 1483 1479 1477 1474 1471 1468 1465 1463 1460 1457 1454 1452 1449 1447 1446 1444 1442 1440 1439 1437
1505 1513 1515 1516 1518 1520 1520 1518 1530 1522 1524 1524 1517 1510 1493 1488 1489 1493 1494 1494 1495 1494 1489 1486 1484 1481 1478 1475 1472 1469 1466 1462 1458 1455 1453 1450 1447 1444 1441 1440 1437 1435 1433 1431
1506 1510 1516 1516 1514 1512 1518 1518 1521 1519 1522 1521 1520 1502 1484 1485 1486 1489 1490 1490 1489 1486 1485 1484 1483 1481 1479 1475 1473 1469 1465 1461 1457 1454 1451 1449 1445 1441 1437 1435 1432 1429 1425 1422
1508 1508 1508 1510 1515 1517 1516 1514 1515 1516 1523 1522 1524 1507 1482 1482 1486 1486 1486 1486 1485 1484 1484 1483 1481 1480 1477 1474 1471 1468 1464 1460 1456 1452 1450 1448 1445 1441 1435 1431 1427 1424 1420 1417
1509 1511 1509 1510 1519 1520 1517 1515 1515 1516 1518 1514 1514 1496 1481 1483 1484 1485 1486 1484 1483 1484 1484 1484 1482 1479 1476 1474 1470 1466 1462 1459 1455 1450 1447 1444 1441 1438 1433 1429 1424 1420 1415 1411
1508 1509 1508 1506 1506 1508 1511 1512 1512 1512 1509 1504 1497 1484 1476 1478 1479 1481 1484 1483 1485 1485 1485 1485 1482 1479 1475 1472 1468 1464 1460 1456 1451 1446 1444 1440 1435 1432 1428 1425 1420 1416 1411 1407
1511 1509 1507 1505 1504 1506 1506 1506 1504 1507 1504 1501 1487 1479 1475 1475 1475 1481 1483 1484 1485 1484 1483 1481 1478 1475 1473 1470 1466 1462 1456 1451 1447 1442 1438 1434 1430 1426 1422 1418 1413 1409 1406 1401
1514 1512 1512 1508 1504 1505 1506 1501 1497 1496 1492 1486 1481 1475 1473 1474 1478 1480 1481 1482 1481 1480 1478 1476 1475 1473 1470 1466 1461 1457 1452 1448 1443 1440 1436 1431 1426 1421 1416 1410 1405 1401 1397 1393
1514 1512 1512 1507 1508 1507 1500 1484 1484 1483 1478 1477 1475 1468 1471 1474 1476 1477 1477 1478 1477 1476 1476 1475 1473 1470 1467 1462 1457 1452 1448 1444 1439 1437 1433 1427 1422 1416 1411 1406 1401 1395 1391 1386
1509 1512 1512 1507 1506 1506 1484 1478 1477 1476 1471 1466 1462 1463 1469 1471 1473 1474 1475 1476 1474 1474 1474 1472 1469 1466 1462 1457 1453 1449 1445 1440 1436 1431 1427 1422 1417 1412 1406 1400 1394 1389 1384 1379
1510 1511 1510 1512 1499 1484 1475 1467 1469 1470 1463 1461 1460 1464 1469 1472 1473 1471 1473 1474 1473 1472 1469 1467 1463 1460 1456 1453 1449 1445 1441 1437 1432 1428 1424 1418 1412 1405 1399 1394 1388 1382 1376 1370
1507 1507 1509 1508 1509 1496 1472 1466 1468 1468 1462 1457 1463 1466 1469 1470 1467 1465 1469 1468 1466 1464 1463 1461 1458 1456 1453 1449 1445 1441 1437 1433 1429 1424 1419 1413 1406 1400 1394 1389 1383 1377 1371 1365
1510 1510 1509 1502 1500 1480 1469 1467 1469 1471 1462 1460 1462 1464 1465 1463 1462 1464 1463 1463 1461 1459 1459 1455 1453 1451 1448 1444 1440 1437 1434 1430 1425 1419 1413 1407 1401 1395 1390 1385 1380 1374 1367 1360
1496 1498 1498 1496 1493 1482 1459 1463 1464 1457 1456 1458 1459 1460 1459 1460 1461 1460 1459 1458 1457 1456 1455 1453 1451 1449 1446 1442 1437 1432 1429 1424 1419 1413 1407 1402 1397 1392 1386 1382 1376 1370 1364 1357
1485 1475 1472 1472 1464 1453 1451 1451 1451 1453 1454 1453 1455 1456 1456 1456 1456 1457 1456 1456 1456 1455 1453 1450 1446 1443 1440 1437 1432 1426 1421 1416 1412 1407 1402 1397 1391 1387 1382 1377 1373 1367 1362 1356
1472 1471 1469 1456 1449 1443 1445 1447 1446 1446 1448 1448 1450 1452 1451 1454 1455 1454 1453 1452 1451 1449 1447 1444 1440 1437 1434 1430 1427 1422 1417 1412 1407 1402 1397 1393 1387 1381 1377 1373 1370 1365 1358 1352
1466 1467 1456 1442 1442 1441 1441 1442 1441 1441 1443 1445 1446 1448 1449 1451 1450 1448 1447 1447 1446 1444 1441 1439 1436 1433 1429 1423 1419 1417 1413 1408 1402 1397 1392 1387 1382 1377 1372 1367 1364 1359 1352 1348
1461 1453 1445 1436 1437 1439 1437 1437 1436 1437 1438 1441 1443 1444 1445 1446 1446 1444 1443 1442 1440 1439 1437 1434 1431 1427 1422 1417 1413 1410 1407 1403 1397 1392 1387 1382 1377 1371 1366 1360 1355 1349 1345 1339